Powrót do katalogu

STARLINK-34501

AktywnyŁącznośćVLEO
NORAD 64429·PAYLOAD·🇺🇸 United States

Wystrzelony Jun 17, 2025 z Vandenberg Space Force Base

Loading…

Następne Przeloty (najbliższe 24 godziny)

TLE

ŚwieżeSource: CelesTrak SupGP

Epoka: Sep 14, 2026, 21:30 UTC

1 64429C 25129T   26257.89631944 -.00001877  00000+0 -65274-4 0  2579
2 64429  69.9995 315.7638 0002924 275.4174 301.8407 15.29591985    12

Śledź STARLINK-34501 w czasie rzeczywistym z AllMySat

Download on the App Store